• In United Kingdom
  • List of Countries
  • For 7 days
  • Water Temperature
  • Satellite Maps
  • Weather Map
  • Weather Widgets
  • user-avatar
    Login

    Hourly Weather Troscianka

    Today, 24 October, Wednesday

    Time Temperature Precipitation Wind Pressure Humidity
    00:00 +5°C° 1.1 mm 8 mps 722 mmHg 85%
    01:00 +5°C° 1.1 mm 8 mps 722 mmHg 85%
    02:00 +6°C° 1.1 mm 7 mps 721 mmHg 85%
    03:00 +5°C° 0.4 mm 8 mps 720 mmHg 83%
    04:00 +5°C° 0.4 mm 8 mps 720 mmHg 80%
    05:00 +4°C° 0.4 mm 8 mps 720 mmHg 78%
    06:00 +4°C° 0.4 mm 8 mps 720 mmHg 78%
    07:00 +4°C° 0.4 mm 8 mps 720 mmHg 79%
    08:00 +2°C° 0.4 mm 8 mps 720 mmHg 79%
    09:00 +4°C° 0.4 mm 8 mps 721 mmHg 75%
    10:00 +3°C° 0.4 mm 9 mps 721 mmHg 71%
    11:00 +3°C° 0.4 mm 10 mps 722 mmHg 67%
    12:00 +3°C° 0.1 mm 10 mps 722 mmHg 64%
    13:00 +3°C° 0.1 mm 10 mps 723 mmHg 60%
    14:00 +3°C° 0.1 mm 11 mps 723 mmHg 57%
    15:00 +3°C° 0.2 mm 10 mps 724 mmHg 58%
    16:00 +3°C° 0.2 mm 10 mps 724 mmHg 60%
    17:00 +2°C° 0.2 mm 10 mps 724 mmHg 61%
    18:00 +2°C° 0.1 mm 11 mps 725 mmHg 63%
    19:00 +2°C° 0.1 mm 11 mps 725 mmHg 64%
    20:00 +2°C° 0.1 mm 11 mps 726 mmHg 66%
    21:00 +2°C° 0 mm 11 mps 727 mmHg 67%
    22:00 +3°C° 0 mm 10 mps 727 mmHg 69%
    23:00 +3°C° 0 mm 10 mps 728 mmHg 70%

    Tomorrow, 25 October, Thursday

    Time Temperature Precipitation Wind Pressure Humidity
    00:00 +2°C° 0 mm 9 mps 729 mmHg 70%
    01:00 +2°C° 0 mm 9 mps 729 mmHg 71%
    02:00 +2°C° 0 mm 9 mps 730 mmHg 71%
    03:00 +2°C° 0 mm 8 mps 730 mmHg 72%
    04:00 +1°C° 0 mm 8 mps 730 mmHg 73%
    05:00 +2°C° 0 mm 7 mps 731 mmHg 74%
    06:00 0°C° 0 mm 7 mps 731 mmHg 75%
    07:00 +1°C° 0 mm 6 mps 731 mmHg 75%
    08:00 +1°C° 0 mm 6 mps 731 mmHg 75%
    09:00 +2°C° 0 mm 6 mps 731 mmHg 72%
    10:00 +3°C° 0 mm 6 mps 730 mmHg 69%
    11:00 +3°C° 0 mm 6 mps 730 mmHg 66%
    12:00 +3°C° 0.4 mm 6 mps 729 mmHg 71%
    13:00 +3°C° 0.4 mm 7 mps 728 mmHg 75%
    14:00 +3°C° 0.4 mm 7 mps 727 mmHg 79%
    15:00 +4°C° 0.8 mm 8 mps 727 mmHg 80%
    16:00 +5°C° 0.8 mm 8 mps 726 mmHg 81%
    17:00 +7°C° 0.8 mm 9 mps 725 mmHg 82%
    18:00 +6°C° 0.3 mm 9 mps 725 mmHg 80%
    19:00 +6°C° 0.3 mm 8 mps 726 mmHg 78%
    20:00 +5°C° 0.3 mm 8 mps 726 mmHg 76%
    21:00 +5°C° 0.1 mm 8 mps 727 mmHg 77%
    22:00 +5°C° 0.1 mm 8 mps 727 mmHg 79%
    23:00 +4°C° 0.1 mm 8 mps 728 mmHg 80%

    Day after tomorrow, 26 October, Friday

    Time Temperature Precipitation Wind Pressure Humidity
    00:00 +4°C° 0 mm 8 mps 729 mmHg 81%
    01:00 +4°C° 0 mm 8 mps 729 mmHg 82%
    02:00 +4°C° 0 mm 7 mps 730 mmHg 83%
    03:00 +4°C° 0 mm 7 mps 730 mmHg 83%
    04:00 +4°C° 0 mm 7 mps 730 mmHg 84%
    05:00 +4°C° 0 mm 6 mps 730 mmHg 84%
    06:00 +4°C° 0 mm 6 mps 731 mmHg 84%
    07:00 +4°C° 0 mm 6 mps 731 mmHg 84%
    08:00 +4°C° 0 mm 6 mps 731 mmHg 84%
    09:00 +4°C° 0 mm 6 mps 732 mmHg 82%
    10:00 +5°C° 0 mm 5 mps 732 mmHg 80%
    11:00 +6°C° 0 mm 5 mps 732 mmHg 79%
    12:00 +6°C° 0 mm 5 mps 732 mmHg 74%
    13:00 +7°C° 0 mm 5 mps 732 mmHg 70%
    14:00 +8°C° 0 mm 5 mps 732 mmHg 66%
    15:00 +7°C° 0 mm 5 mps 732 mmHg 68%
    16:00 +7°C° 0 mm 4 mps 731 mmHg 70%
    17:00 +7°C° 0 mm 3 mps 731 mmHg 71%
    18:00 +7°C° 0 mm 3 mps 731 mmHg 75%
    19:00 +6°C° 0 mm 4 mps 731 mmHg 79%
    20:00 +5°C° 0 mm 4 mps 731 mmHg 83%
    21:00 +6°C° 0 mm 4 mps 730 mmHg 83%
    22:00 +6°C° 0 mm 5 mps 730 mmHg 83%
    23:00 +6°C° 0 mm 5 mps 729 mmHg 84%

    27 October, Saturday

    Time Temperature Precipitation Wind Pressure Humidity
    00:00 +7°C° 0 mm 5 mps 729 mmHg 82%
    01:00 +7°C° 0 mm 6 mps 729 mmHg 80%
    02:00 +8°C° 0 mm 6 mps 728 mmHg 79%
    03:00 +8°C° 0 mm 6 mps 728 mmHg 79%
    04:00 +8°C° 0 mm 6 mps 728 mmHg 79%
    05:00 +6°C° 0 mm 7 mps 728 mmHg 80%
    06:00 +6°C° 0 mm 7 mps 729 mmHg 78%
    07:00 +6°C° 0 mm 7 mps 729 mmHg 77%
    08:00 +6°C° 0 mm 7 mps 729 mmHg 75%
    09:00 +6°C° 0 mm 7 mps 730 mmHg 70%
    10:00 +6°C° 0 mm 8 mps 730 mmHg 64%
    11:00 +6°C° 0 mm 8 mps 731 mmHg 59%
    12:00 +6°C° 0 mm 7 mps 731 mmHg 58%
    13:00 +6°C° 0 mm 7 mps 732 mmHg 57%
    14:00 +8°C° 0 mm 6 mps 732 mmHg 56%
    15:00 +7°C° 0 mm 5 mps 733 mmHg 58%
    16:00 +7°C° 0 mm 4 mps 733 mmHg 59%
    17:00 +6°C° 0 mm 4 mps 733 mmHg 60%
    18:00 +7°C° 0 mm 3 mps 734 mmHg 62%
    19:00 +5°C° 0 mm 3 mps 734 mmHg 65%
    20:00 +5°C° 0 mm 3 mps 735 mmHg 67%
    21:00 +6°C° 0 mm 2 mps 735 mmHg 68%
    22:00 +5°C° 0 mm 2 mps 735 mmHg 69%
    23:00 +6°C° 0 mm 1 mps 735 mmHg 70%

    28 October, Sunday

    Time Temperature Precipitation Wind Pressure Humidity
    00:00 +6°C° 0 mm 1 mps 736 mmHg 70%
    01:00 +6°C° 0 mm 1 mps 736 mmHg 71%
    02:00 +5°C° 0 mm 0 mps 736 mmHg 71%
    03:00 +6°C° 0.1 mm 1 mps 736 mmHg 73%
    04:00 +6°C° 0.1 mm 1 mps 737 mmHg 74%
    05:00 +6°C° 0.1 mm 1 mps 737 mmHg 76%
    06:00 +6°C° 0.2 mm 1 mps 737 mmHg 77%
    07:00 +4°C° 0.2 mm 2 mps 737 mmHg 78%
    08:00 +4°C° 0.2 mm 2 mps 737 mmHg 80%
    09:00 +5°C° 0.5 mm 2 mps 737 mmHg 79%
    10:00 +4°C° 0.5 mm 3 mps 738 mmHg 78%
    11:00 +4°C° 0.5 mm 3 mps 738 mmHg 77%
    12:00 +4°C° 0.5 mm 4 mps 737 mmHg 78%
    13:00 +4°C° 0.5 mm 4 mps 737 mmHg 78%
    14:00 +3°C° 0.5 mm 5 mps 737 mmHg 79%
    15:00 +3°C° 0.6 mm 5 mps 737 mmHg 81%
    16:00 +3°C° 0.6 mm 5 mps 737 mmHg 84%
    17:00 +3°C° 0.6 mm 6 mps 736 mmHg 86%
    18:00 +3°C° 1.1 mm 6 mps 736 mmHg 87%
    19:00 +3°C° 1.1 mm 6 mps 736 mmHg 89%
    20:00 +3°C° 1.1 mm 6 mps 736 mmHg 90%
    21:00 +3°C° 2.4 mm 6 mps 736 mmHg 91%
    22:00 +3°C° 2.4 mm 6 mps 735 mmHg 92%
    23:00 +3°C° 2.4 mm 5 mps 735 mmHg 93%

    29 October, Monday

    Time Temperature Precipitation Wind Pressure Humidity
    00:00 +3°C° 1.1 mm 5 mps 735 mmHg 93%
    01:00 +3°C° 1.1 mm 5 mps 734 mmHg 94%
    02:00 +5°C° 1.1 mm 4 mps 734 mmHg 94%
    03:00 +5°C° 0.5 mm 4 mps 733 mmHg 95%
    04:00 +5°C° 0.5 mm 4 mps 733 mmHg 95%
    05:00 +5°C° 0.5 mm 3 mps 733 mmHg 95%
    06:00 +5°C° 0.3 mm 3 mps 733 mmHg 95%
    07:00 +5°C° 0.3 mm 3 mps 733 mmHg 95%
    08:00 +7°C° 0.3 mm 3 mps 732 mmHg 95%
    09:00 +7°C° 0.3 mm 3 mps 733 mmHg 93%
    10:00 +8°C° 0.3 mm 3 mps 733 mmHg 91%
    11:00 +9°C° 0.3 mm 3 mps 733 mmHg 89%
    12:00 +9°C° 1.2 mm 3 mps 733 mmHg 90%
    13:00 +9°C° 1.2 mm 3 mps 732 mmHg 92%
    14:00 +9°C° 1.2 mm 3 mps 732 mmHg 93%
    15:00 +9°C° 1.6 mm 3 mps 732 mmHg 94%
    16:00 +9°C° 1.6 mm 3 mps 732 mmHg 94%
    17:00 +9°C° 1.6 mm 3 mps 732 mmHg 95%
    18:00 +9°C° 0.6 mm 3 mps 732 mmHg 94%
    19:00 +8°C° 0.6 mm 3 mps 732 mmHg 94%
    20:00 +7°C° 0.6 mm 4 mps 733 mmHg 94%
    21:00 +6°C° 0.1 mm 4 mps 733 mmHg 93%
    22:00 +5°C° 0.1 mm 4 mps 734 mmHg 93%
    23:00 +5°C° 0.1 mm 4 mps 734 mmHg 93%
    Show more